FW7308 Weather Reports


time (UTC)temp
C
wind
direction
speed
KPH
gust
KPH
rain 1hr
cm
rain 24hr
cm
rain mn
cm
humidity
%
barometer
mb
20260504025234 2 332 1.6 3.2 0.00 0.00 0.00 75 1010.9
20260504024734 1 324 3.2 3.2 0.00 0.00 0.00 78 1011.2
20260504024134 1 321 3.2 3.2 0.00 0.00 0.00 77 1010.9
20260504023634 2 324 3.2 3.2 0.00 0.00 0.00 77 1011.2
20260504023133 1 323 3.2 3.2 0.00 0.00 0.00 77 1011.2
20260504022632 2 321 3.2 3.2 0.00 0.00 0.00 77 1011.2
20260504022132 1 319 3.2 3.2 0.00 0.00 0.00 76 1011.2
20260504021734 1 322 3.2 3.2 0.00 0.00 0.00 76 1011.2
20260504021232 1 321 3.2 3.2 0.00 0.00 0.00 77 1011.2
20260504020631 2 324 3.2 3.2 0.00 0.00 0.00 77 1010.9
20260504020131 2 331 3.2 4.8 0.00 0.00 0.00 77 1011.2
20260504015230 2 326 3.2 3.2 0.00 0.00 0.00 77 1011.2
20260504014632 2 318 3.2 3.2 0.00 0.00 0.00 76 1010.9
20260504014129 2 324 3.2 3.2 0.00 0.00 0.00 76 1010.9
20260504013630 2 328 3.2 3.2 0.00 0.00 0.00 76 1011.0
20260504012628 2 321 3.2 3.2 0.00 0.00 0.00 75 1010.9
20260504012129 2 324 3.2 3.2 0.00 0.00 0.00 75 1010.9
20260504011628 2 323 3.2 3.2 0.00 0.00 0.00 75 1010.9
20260504011127 2 326 3.2 3.2 0.00 0.00 0.00 74 1010.5
20260504010627 2 326 3.2 3.2 0.00 0.00 0.00 74 1010.5
20260504010126 2 326 3.2 3.2 0.00 0.00 0.00 74 1010.5
20260504005625 2 324 3.2 3.2 0.00 0.00 0.00 73 1010.5
20260504005126 2 328 3.2 3.2 0.00 0.00 0.00 75 1010.3
20260504004625 3 325 3.2 3.2 0.00 0.00 0.00 74 1010.5
20260504004124 3 324 3.2 3.2 0.00 0.00 0.00 72 1010.1
20260504003624 3 325 3.2 3.2 0.00 0.00 0.00 73 1010.5
20260504003127 3 319 3.2 3.2 0.00 0.00 0.00 72 1010.1
20260504002724 3 324 3.2 3.2 0.00 0.00 0.00 71 1010.1
20260504002124 3 323 3.2 3.2 0.00 0.00 0.00 73 1010.1
20260504001623 4 324 3.2 3.2 0.00 0.00 0.00 70 1010.1
20260504001124 4 326 1.6 3.2 0.00 0.00 0.00 68 1010.1
20260504000623 5 324 1.6 1.6 0.00 0.00 0.00 67 1009.8
20260504000222 5 330 1.6 3.2 0.00 0.00 0.00 65 1009.8
20260503235621 5 325 1.6 3.2 0.00 0.00 0.00 64 1009.8
20260503235123 6 334 1.6 1.6 0.00 0.00 0.00 61 1009.8
20260503234622 6 338 1.6 3.2 0.00 0.00 0.00 61 1009.8
20260503234122 6 335 0.0 1.6 0.00 0.00 0.00 61 1009.8
20260503233620 7 337 0.0 1.6 0.00 0.00 0.00 55 1009.8
20260503233119 7 340 0.0 1.6 0.00 0.00 0.00 55 1009.8
20260503232620 7 338 1.6 3.2 0.00 0.00 0.00 53 1009.8
20260503232120 7 334 1.6 1.6 0.00 0.00 0.00 54 1009.8
20260503231619 8 338 3.2 4.8 0.00 0.00 0.00 50 1009.8
20260503231120 8 325 0.0 1.6 0.00 0.00 0.00 48 1009.4
20260503230619 8 332 1.6 3.2 0.00 0.00 0.00 48 1009.4
20260503230118 8 342 4.8 9.7 0.00 0.00 0.00 48 1009.4
20260503225719 8 342 3.2 4.8 0.00 0.00 0.00 48 1009.6
20260503225119 8 319 3.2 8.0 0.00 0.00 0.00 47 1009.4
20260503224618 8 324 3.2 3.2 0.00 0.00 0.00 48 1009.4
20260503224117 8 297 6.4 9.7 0.00 0.00 0.00 47 1009.6
20260503223618 8 289 6.4 12.9 0.00 0.00 0.00 48 1009.4
20260503223117 8 310 6.4 12.9 0.00 0.00 0.00 49 1009.8
20260503222616 8 330 11.3 14.5 0.00 0.00 0.00 48 1009.4
20260503222146 9 327 3.2 3.2 0.00 0.00 0.00 48 1009.4
20260503221645 9 317 6.4 8.0 0.00 0.00 0.00 48 1009.4
20260503221144 9 262 8.0 11.3 0.00 0.00 0.00 48 1009.6
20260503220645 9 346 4.8 12.9 0.00 0.00 0.00 47 1009.6
20260503220144 10 322 3.2 8.0 0.00 0.00 0.00 47 1009.4
20260503215643 10 323 1.6 1.6 0.00 0.00 0.00 48 1009.4
20260503215145 8 337 1.6 1.6 0.00 0.00 0.00 48 1009.4
20260503214644 8 303 4.8 9.7 0.00 0.00 0.00 49 1009.4
20260503214144 8 340 6.4 9.7 0.00 0.00 0.00 49 1009.4
20260503213643 8 287 6.4 9.7 0.00 0.00 0.00 50 1009.4
20260503213142 8 346 6.4 11.3 0.00 0.00 0.00 48 1009.4
20260503212644 8 315 6.4 11.3 0.00 0.00 0.00 48 1009.4
20260503212142 8 345 14.5 16.1 0.00 0.00 0.00 48 1009.4
20260503211641 8 346 6.4 11.3 0.00 0.00 0.00 48 1009.4
20260503210142 8 303 9.7 20.9 0.00 0.00 0.00 49 1009.1
20260503205640 8 306 4.8 8.0 0.00 0.00 0.00 49 1009.1
20260503205144 8 345 9.7 16.1 0.00 0.00 0.00 49 1009.4
20260503204638 8 328 6.4 12.9 0.00 0.00 0.00 51 1009.4
20260503204139 8 331 12.9 32.2 0.00 0.00 0.00 49 1009.4
20260503203639 8 322 3.2 4.8 0.00 0.00 0.00 49 1009.4
20260503203138 8 349 6.4 11.3 0.00 0.00 0.00 49 1009.1
20260503202639 8 5 8.0 11.3 0.00 0.00 0.00 49 1009.1
20260503202136 8 311 11.3 17.7 0.00 0.00 0.00 50 1009.1
20260503201638 8 327 8.0 11.3 0.00 0.00 0.00 50 1009.1
20260503201138 8 326 9.7 12.9 0.00 0.00 0.00 50 1009.3
20260503200636 8 343 4.8 9.7 0.00 0.00 0.00 51 1009.4
20260503200137 7 355 6.4 17.7 0.00 0.00 0.00 50 1009.3
20260503195736 7 326 8.0 12.9 0.00 0.00 0.00 50 1009.4
20260503195136 8 355 8.0 16.1 0.00 0.00 0.00 49 1009.1
20260503194637 8 322 8.0 11.3 0.00 0.00 0.00 50 1009.4
20260503194136 8 293 8.0 12.9 0.00 0.00 0.00 48 1009.3
20260503193635 8 333 4.8 4.8 0.00 0.00 0.00 50 1009.4
20260503193134 8 336 11.3 24.1 0.00 0.00 0.00 49 1009.4
20260503192634 8 338 3.2 11.3 0.00 0.00 0.00 49 1009.4
20260503192136 8 14 11.3 16.1 0.00 0.00 0.00 49 1009.4
20260503191133 8 353 8.0 16.1 0.00 0.00 0.00 48 1009.4
20260503190735 8 329 8.0 11.3 0.00 0.00 0.00 49 1009.4
20260503185633 8 329 9.7 14.5 0.00 0.00 0.00 48 1009.4
20260503185132 8 271 9.7 14.5 0.00 0.00 0.00 49 1009.6
20260503184631 7 308 8.0 12.9 0.00 0.00 0.00 50 1009.4
20260503184130 7 331 8.0 12.9 0.00 0.00 0.00 51 1009.4
20260503183632 7 349 4.8 9.7 0.00 0.00 0.00 51 1009.4
20260503183131 8 2 8.0 11.3 0.00 0.00 0.00 52 1009.4
20260503182130 8 3 11.3 16.1 0.00 0.00 0.00 52 1009.4
20260503181630 8 296 8.0 11.3 0.00 0.00 0.00 52 1009.4
20260503181130 7 337 8.0 12.9 0.00 0.00 0.00 52 1009.3
20260503180128 8 344 9.7 14.5 0.00 0.00 0.00 52 1009.1
20260503175627 8 284 11.3 16.1 0.00 0.00 0.00 51 1009.1
20260503175128 9 318 3.2 9.7 0.00 0.00 0.00 51 1008.9
20260503174627 8 280 14.5 25.7 0.00 0.00 0.00 50 1009.1
20260503174126 9 344 8.0 12.9 0.00 0.00 0.00 51 1009.1
20260503173626 8 7 14.5 20.9 0.00 0.00 0.00 50 1009.1
20260503172628 8 335 11.3 16.1 0.00 0.00 0.00 48 1009.1
20260503172125 8 321 9.7 17.7 0.00 0.00 0.00 49 1008.9
20260503171730 8 324 3.2 4.8 0.00 0.00 0.00 48 1008.7
20260503171126 9 308 12.9 20.9 0.00 0.00 0.00 46 1008.7
20260503170625 8 357 4.8 9.7 0.00 0.00 0.00 49 1008.9
20260503170124 7 321 11.3 17.7 0.00 0.00 0.00 49 1008.7
20260503160120 8 298 12.9 20.9 0.00 0.00 0.00 54 1008.9
20260503150617 8 319 8.0 14.5 0.00 0.00 0.00 53 1009.4
20260503150146 7 307 11.3 16.1 0.00 0.00 0.00 55 1009.1
20260503140142 7 324 6.4 11.3 0.00 0.00 0.00 66 1009.4
20260503131138 6 339 6.4 11.3 0.00 0.00 0.00 73 1009.8
20260503130638 6 339 3.2 4.8 0.00 0.00 0.00 73 1009.8
20260503130137 5 331 6.4 9.7 0.00 0.00 0.00 74 1009.8
20260503120133 4 317 8.0 12.9 0.00 0.00 0.00 82 1009.8
20260503110630 3 310 3.2 4.8 0.00 0.00 0.00 87 1009.4
20260503110131 3 320 3.2 3.2 0.00 0.00 0.00 87 1009.4
20260503100127 2 327 3.2 3.2 0.00 0.00 0.00 89 1009.4
20260503081621 2 333 1.6 1.6 0.00 0.00 0.00 94 1010.1
20260503081121 2 329 1.6 1.6 0.00 0.00 0.00 93 1009.8
20260503080618 2 331 1.6 1.6 0.00 0.00 0.00 93 1010.1
20260503072649 2 332 1.6 1.6 0.00 0.00 0.00 95 1010.3
20260503072145 2 0.0 0.0 0.00 0.00 0.00 95 1010.5
20260503071648 2 0.0 0.0 0.00 0.00 0.00 95 1010.5
20260503071147 2 335 1.6 3.2 0.00 0.00 0.00 95 1010.7
20260503070644 2 326 1.6 1.6 0.00 0.00 0.00 94 1010.5
20260503070143 2 336 0.0 1.6 0.00 0.00 0.00 94 1010.5
20260503060143 2 0.0 0.0 0.00 0.00 0.00 95 1011.2
20260503054639 2 327 1.6 1.6 0.00 0.00 0.00 96 1011.6
20260503054142 2 330 1.6 1.6 0.00 0.00 0.00 96 1011.6
20260503053741 2 328 1.6 1.6 0.00 0.00 0.00 97 1011.6
20260503053138 2 326 1.6 3.2 0.00 0.00 0.00 97 1011.6
20260503052638 2 327 1.6 1.6 0.00 0.00 0.00 97 1011.6
20260503052137 2 335 1.6 3.2 0.00 0.00 0.00 98 1011.6
20260503051138 2 335 1.6 1.6 0.00 0.00 0.00 98 1011.6
20260503050636 2 326 1.6 3.2 0.00 0.00 0.00 98 1011.9
20260503050136 2 331 1.6 1.6 0.00 0.00 0.00 99 1011.9
20260503045638 2 333 1.6 1.6 0.00 0.00 0.00 99 1011.9
20260503045239 1 332 3.2 3.2 0.00 0.00 0.00 99 1011.9
20260503044635 1 327 1.6 3.2 0.00 0.00 0.00 99 1011.9
20260503044134 1 326 3.2 3.2 0.00 0.00 0.00 99 1011.9
20260503043638 1 328 3.2 3.2 0.00 0.00 0.00 99 1011.9
20260503043235 1 323 3.2 3.2 0.00 0.00 0.00 99 1012.3
20260503042638 1 324 3.2 3.2 0.00 0.00 0.00 99 1012.3
20260503042133 1 324 3.2 3.2 0.00 0.00 0.00 99 1012.3
20260503041634 1 323 3.2 3.2 0.00 0.00 0.00 99 1012.3
20260503041133 1 328 1.6 3.2 0.00 0.00 0.00 99 1012.3
20260503040633 1 328 1.6 3.2 0.00 0.00 0.00 99 1012.6
20260503040132 1 328 3.2 3.2 0.00 0.00 0.00 99 1012.6
20260503035633 1 328 3.2 3.2 0.00 0.00 0.43 99 1012.6
20260503035132 1 327 1.6 3.2 0.00 0.00 0.43 98 1012.6
20260503034631 2 328 1.6 1.6 0.00 0.00 0.43 98 1012.6
20260503034130 2 325 3.2 3.2 0.00 0.00 0.43 98 1013.0
20260503033630 2 322 3.2 3.2 0.00 0.00 0.43 97 1012.6
20260503033131 2 0.0 0.0 0.00 0.00 0.43 97 1012.6
20260503032632 2 332 1.6 1.6 0.00 0.00 0.43 97 1012.6
20260503032131 2 337 1.6 1.6 0.00 0.00 0.43 97 1012.6
20260503031728 2 327 1.6 1.6 0.00 0.00 0.43 96 1012.6
20260503031230 2 328 3.2 3.2 0.00 0.00 0.43 96 1012.6
20260503030128 2 329 1.6 1.6 0.00 0.00 0.43 95 1013.0
20260503025629 2 326 1.6 1.6 0.00 0.00 0.43 95 1012.8